• In Hungary
  • List of Countries
  • For 7 days
  • Water Temperature
  • Satellite Maps
  • Weather Map
  • News
  • Weather Widgets
  • user-avatar
    Login

    Hourly Weather Atikovo

    Today, 24 September, Monday

    Time Temperature Precipitation Wind Pressure Humidity
    00:00 +13°C° 0 mm 1 mps 737 mmHg 95%
    01:00 +13°C° 0 mm 1 mps 737 mmHg 95%
    02:00 +13°C° 0 mm 1 mps 737 mmHg 95%
    03:00 +12°C° 0 mm 1 mps 737 mmHg 95%
    04:00 +12°C° 0 mm 1 mps 736 mmHg 96%
    05:00 +12°C° 0 mm 1 mps 736 mmHg 97%
    06:00 +13°C° 0 mm 1 mps 736 mmHg 97%
    07:00 +13°C° 0 mm 1 mps 737 mmHg 97%
    08:00 +15°C° 0 mm 1 mps 737 mmHg 91%
    09:00 +17°C° 0 mm 2 mps 737 mmHg 84%
    10:00 +19°C° 0 mm 2 mps 736 mmHg 77%
    11:00 +20°C° 0.2 mm 3 mps 736 mmHg 74%
    12:00 +20°C° 0.2 mm 3 mps 736 mmHg 71%
    13:00 +21°C° 0.2 mm 3 mps 736 mmHg 67%
    14:00 +21°C° 0.2 mm 3 mps 736 mmHg 67%
    15:00 +21°C° 0.2 mm 3 mps 736 mmHg 67%
    16:00 +21°C° 0.2 mm 3 mps 736 mmHg 68%
    17:00 +19°C° 0 mm 3 mps 736 mmHg 73%
    18:00 +17°C° 0 mm 2 mps 736 mmHg 79%
    19:00 +15°C° 0 mm 2 mps 736 mmHg 85%
    20:00 +15°C° 0 mm 2 mps 736 mmHg 86%
    21:00 +14°C° 0 mm 2 mps 736 mmHg 86%
    22:00 +14°C° 0 mm 2 mps 736 mmHg 87%
    23:00 +13°C° 0 mm 1 mps 736 mmHg 87%

    Tomorrow, 25 September, Tuesday

    Time Temperature Precipitation Wind Pressure Humidity
    00:00 +13°C° 0 mm 1 mps 736 mmHg 87%
    01:00 +12°C° 0 mm 1 mps 736 mmHg 88%
    02:00 +12°C° 0 mm 1 mps 736 mmHg 88%
    03:00 +12°C° 0 mm 2 mps 736 mmHg 88%
    04:00 +12°C° 0 mm 2 mps 736 mmHg 88%
    05:00 +12°C° 0 mm 2 mps 736 mmHg 87%
    06:00 +12°C° 0 mm 2 mps 736 mmHg 85%
    07:00 +12°C° 0 mm 2 mps 736 mmHg 84%
    08:00 +14°C° 0 mm 3 mps 736 mmHg 73%
    09:00 +17°C° 0 mm 3 mps 737 mmHg 62%
    10:00 +20°C° 0 mm 4 mps 737 mmHg 50%
    11:00 +20°C° 0 mm 5 mps 737 mmHg 47%
    12:00 +21°C° 0 mm 5 mps 736 mmHg 44%
    13:00 +22°C° 0 mm 5 mps 736 mmHg 40%
    14:00 +22°C° 0 mm 5 mps 736 mmHg 43%
    15:00 +21°C° 0 mm 4 mps 736 mmHg 46%
    16:00 +21°C° 0 mm 4 mps 736 mmHg 48%
    17:00 +19°C° 0 mm 3 mps 736 mmHg 54%
    18:00 +17°C° 0 mm 3 mps 736 mmHg 59%
    19:00 +15°C° 0 mm 2 mps 736 mmHg 65%
    20:00 +15°C° 0 mm 2 mps 736 mmHg 65%
    21:00 +14°C° 0 mm 2 mps 736 mmHg 66%
    22:00 +14°C° 0 mm 2 mps 736 mmHg 66%
    23:00 +13°C° 0 mm 2 mps 736 mmHg 67%

    Day after tomorrow, 26 September, Wednesday

    Time Temperature Precipitation Wind Pressure Humidity
    00:00 +13°C° 0 mm 2 mps 736 mmHg 68%
    01:00 +12°C° 0 mm 2 mps 737 mmHg 70%
    02:00 +12°C° 0 mm 2 mps 737 mmHg 71%
    03:00 +12°C° 0 mm 2 mps 737 mmHg 72%
    04:00 +12°C° 0 mm 2 mps 737 mmHg 73%
    05:00 +12°C° 0 mm 2 mps 737 mmHg 73%
    06:00 +12°C° 0 mm 2 mps 737 mmHg 72%
    07:00 +12°C° 0 mm 2 mps 737 mmHg 72%
    08:00 +13°C° 0 mm 3 mps 737 mmHg 66%
    09:00 +16°C° 0 mm 3 mps 737 mmHg 61%
    10:00 +18°C° 0 mm 4 mps 737 mmHg 56%
    11:00 +18°C° 0 mm 4 mps 737 mmHg 56%
    12:00 +19°C° 0 mm 4 mps 737 mmHg 56%
    13:00 +19°C° 0 mm 4 mps 737 mmHg 56%
    14:00 +19°C° 0.1 mm 4 mps 737 mmHg 59%
    15:00 +19°C° 0.1 mm 3 mps 737 mmHg 62%
    16:00 +18°C° 0.1 mm 2 mps 737 mmHg 64%
    17:00 +17°C° 0 mm 2 mps 737 mmHg 67%
    18:00 +16°C° 0 mm 2 mps 737 mmHg 70%
    19:00 +15°C° 0 mm 2 mps 737 mmHg 73%
    20:00 +15°C° 0 mm 2 mps 737 mmHg 72%
    21:00 +15°C° 0 mm 2 mps 737 mmHg 72%
    22:00 +14°C° 0 mm 2 mps 737 mmHg 72%
    23:00 +14°C° 0 mm 2 mps 737 mmHg 71%

    27 September, Thursday

    Time Temperature Precipitation Wind Pressure Humidity
    00:00 +14°C° 0 mm 2 mps 737 mmHg 71%
    01:00 +14°C° 0 mm 2 mps 737 mmHg 70%
    02:00 +14°C° 0.1 mm 2 mps 737 mmHg 73%
    03:00 +13°C° 0.1 mm 2 mps 737 mmHg 76%
    04:00 +13°C° 0.1 mm 2 mps 737 mmHg 79%
    05:00 +12°C° 0.4 mm 2 mps 736 mmHg 83%
    06:00 +12°C° 0.4 mm 1 mps 736 mmHg 87%
    07:00 +11°C° 0.4 mm 1 mps 736 mmHg 91%
    08:00 +11°C° 0.4 mm 1 mps 736 mmHg 90%
    09:00 +12°C° 0.4 mm 2 mps 736 mmHg 88%
    10:00 +12°C° 0.4 mm 2 mps 736 mmHg 86%
    11:00 +12°C° 0.3 mm 2 mps 736 mmHg 83%
    12:00 +11°C° 0.3 mm 3 mps 736 mmHg 79%
    13:00 +11°C° 0.3 mm 3 mps 736 mmHg 76%
    14:00 +11°C° 0.3 mm 3 mps 736 mmHg 77%
    15:00 +10°C° 0.3 mm 3 mps 736 mmHg 78%
    16:00 +9°C° 0.3 mm 3 mps 736 mmHg 79%
    17:00 +8°C° 0 mm 3 mps 736 mmHg 82%
    18:00 +7°C° 0 mm 2 mps 736 mmHg 84%
    19:00 +6°C° 0 mm 2 mps 736 mmHg 87%
    20:00 +6°C° 0 mm 2 mps 736 mmHg 85%
    21:00 +5°C° 0 mm 2 mps 736 mmHg 83%
    22:00 +5°C° 0 mm 2 mps 735 mmHg 81%
    23:00 +4°C° 0 mm 3 mps 735 mmHg 80%

    28 September, Friday

    Time Temperature Precipitation Wind Pressure Humidity
    00:00 +5°C° 0 mm 3 mps 734 mmHg 78%
    01:00 +5°C° 0 mm 3 mps 734 mmHg 76%
    02:00 +5°C° 0 mm 3 mps 733 mmHg 77%
    03:00 +5°C° 0 mm 3 mps 733 mmHg 77%
    04:00 +5°C° 0 mm 4 mps 733 mmHg 78%
    05:00 +5°C° 0 mm 4 mps 732 mmHg 77%
    06:00 +5°C° 0 mm 5 mps 732 mmHg 75%
    07:00 +6°C° 0 mm 5 mps 731 mmHg 74%
    08:00 +6°C° 0.6 mm 5 mps 731 mmHg 76%
    09:00 +5°C° 0.6 mm 6 mps 731 mmHg 77%
    10:00 +5°C° 0.6 mm 6 mps 731 mmHg 78%
    11:00 +5°C° 0.8 mm 6 mps 731 mmHg 81%
    12:00 +5°C° 0.8 mm 6 mps 731 mmHg 83%
    13:00 +5°C° 0.8 mm 6 mps 731 mmHg 86%
    14:00 +6°C° 0.1 mm 5 mps 731 mmHg 86%
    15:00 +6°C° 0.1 mm 5 mps 732 mmHg 87%
    16:00 +6°C° 0.1 mm 5 mps 732 mmHg 87%
    17:00 +6°C° 0 mm 4 mps 732 mmHg 89%
    18:00 +7°C° 0 mm 3 mps 733 mmHg 91%
    19:00 +5°C° 0 mm 3 mps 733 mmHg 93%
    20:00 +5°C° 0 mm 3 mps 733 mmHg 93%
    21:00 +5°C° 0 mm 3 mps 733 mmHg 94%
    22:00 +4°C° 0 mm 3 mps 733 mmHg 95%
    23:00 +5°C° 0 mm 3 mps 732 mmHg 91%

    29 September, Saturday

    Time Temperature Precipitation Wind Pressure Humidity
    00:00 +6°C° 0 mm 4 mps 732 mmHg 88%
    01:00 +7°C° 0 mm 5 mps 731 mmHg 85%
    02:00 +7°C° 0 mm 6 mps 731 mmHg 84%
    03:00 +8°C° 0 mm 6 mps 730 mmHg 84%
    04:00 +8°C° 0 mm 6 mps 730 mmHg 84%
    05:00 +8°C° 0.1 mm 7 mps 730 mmHg 85%
    06:00 +9°C° 0.1 mm 7 mps 730 mmHg 86%
    07:00 +9°C° 0.1 mm 7 mps 730 mmHg 86%
    08:00 +9°C° 0.2 mm 7 mps 731 mmHg 87%
    09:00 +9°C° 0.2 mm 7 mps 731 mmHg 87%
    10:00 +10°C° 0.2 mm 7 mps 731 mmHg 88%
    11:00 +10°C° 0.3 mm 6 mps 732 mmHg 84%
    12:00 +10°C° 0.3 mm 6 mps 733 mmHg 81%
    13:00 +10°C° 0.3 mm 5 mps 733 mmHg 78%
    14:00 +10°C° 0 mm 5 mps 734 mmHg 71%
    15:00 +11°C° 0 mm 4 mps 735 mmHg 64%
    16:00 +12°C° 0 mm 4 mps 735 mmHg 57%
    17:00 +10°C° 0 mm 3 mps 736 mmHg 65%
    18:00 +8°C° 0 mm 2 mps 736 mmHg 72%
    19:00 +7°C° 0 mm 1 mps 737 mmHg 80%
    20:00 +6°C° 0 mm 1 mps 737 mmHg 81%
    21:00 +6°C° 0 mm 1 mps 737 mmHg 82%
    22:00 +4°C° 0 mm 0 mps 737 mmHg 83%
    23:00 +5°C° 0 mm 1 mps 737 mmHg 82%
    Show more